Regional Weather Roundup
Issued by NWS

Home | Current Version | Previous Version | Text Only | Print | Product List | Glossary On
Versions: 1 2 3 4 5 6 7 8 9 10 11 12 13 14 15 16 17 18 19 20 21 22 23 24 25 26 27 28 29 30 31 32 33 34 35 36 37 38 39 40 41 42 43 44 45 46 47 48 49 50
000
ASUS45 KBOI 281910
RWRID

IDAHO REGIONAL WEATHER ROUNDUP
NATIONAL WEATHER SERVICE BOISE ID
100 PM MDT TUE JUL 28 2015

NOTE: "FAIR" INDICATES FEW OR NO CLOUDS BELOW 12000 FEET
WITH NO SIGNIFICANT WEATHER AND/OR OBSTRUCTIONS TO VISIBILITY

IDZ012-014-282000-
SOUTHWEST IDAHO


CITY           SKY/WX    TMP DP  RH WIND       PRES   REMARKS
BOISE          SUNNY     72  36  26 W5        30.25F
CALDWELL       SUNNY     73  37  27 CALM      30.27S
MOUNTAIN HOME  SUNNY     72  30  20 VRB2      30.26F
$$

IDZ016-017-282000-
SOUTHCENTRAL IDAHO


CITY           SKY/WX    TMP DP  RH WIND       PRES   REMARKS
BURLEY         SUNNY     66  32  28 VRB3      30.30F
JEROME         SUNNY     67  27  22 SW5       30.31S
TWIN FALLS     SUNNY     69  33  26 VRB5      30.28S
$$

IDZ019>023-282000-
SOUTHEAST IDAHO


CITY           SKY/WX    TMP DP  RH WIND       PRES   REMARKS
IDAHO FALLS    MOSUNNY   64  34  32 NW7       30.33S
POCATELLO      SUNNY     67  29  24 CALM      30.32F
REXBURG        SUNNY     61  33  35 VRB3      30.33S
$$

IDZ006-010-011-018-031-032-282000-
CENTRAL IDAHO MOUNTAINS


CITY           SKY/WX    TMP DP  RH WIND       PRES   REMARKS
MCCALL         PTSUNNY   62  34  35 W9        30.31F
HAILEY         MOSUNNY   63  36  36 S9        30.34F
STANLEY          N/A     55  35  47 SW5       30.39F
SALMON         CLOUDY    55  43  62 CALM      30.33S
CHALLIS        MOSUNNY   62  34  35 N7        30.34F
$$

IDZ002-004-006-007-026-282000-
NORTHERN IDAHO


CITY           SKY/WX    TMP DP  RH WIND       PRES   REMARKS
LEWISTON       SUNNY     76  43  30 NW6       30.23F
LOWELL           N/A     70  51  51 N3        30.24F
COEUR D`ALENE  SUNNY     73  45  35 W8G17     30.22F
MULLAN PASS    MOSUNNY   54  38  54 NW9       30.32R
$$


USA.gov is the U.S. government's official web portal to all federal, state and local government web resources and services.